FENGYUN 2A DEB

Satellite information

Favourite Embed

Satellite Type and Status

DEBRISIN ORBIT

Key statistics

Satellite FENGYUN 2A DEB at a glance.

Uptime

10372

Days in orbit

Revolutions

≈ 1.0

Per day

Orbit

OTHER

Other

Inclination

14.8

Latest

Satellite identification and parameters

Extended collection of information and parameters for FENGYUN 2A DEB.

Object identification

Identified? True

Debris? True

Object name: FENGYUN 2A DEB

International designator: 1997-029D

Object number (NORAD): 43355

Object ID (CCSDS): 43355

Country: PEOPLES REPUBLIC OF CHINA (PRC)

Current information (Y/N): Y

Orbital parameters

Period: 1435.389 minutes

Inclination: 14.8453 deg

SMA: 42150.869 km

Apoapsis: 35974.224 km

Periapsis: 35571.244 km

RAAN: 358.7509 deg

Eccentricy: 0.00478021

Argument of periapsis: 1.5474 deg

Mean anomaly: 358.474 deg

Mean motion: 1.00321256 rev/day

Mean motion (dot): 0.0000006 rev/day2

B* drag term: 0.0 1/REarth

Two-line elements (TLE)

Creation date: Nov. 1, 2025, 7:40 p.m.

Reference frame: TEME

Reference center: EARTH

Epoch: Oct. 31, 2025, 5:35 p.m. UTC

TLE line 0: 0 FENGYUN 2A DEB

TLE line 1: 1 43355U 97029D 25304.73287198 .00000060 00000-0 00000-0 0 9992

TLE line 2: 2 43355 14.8453 358.7509 0047802 1.5474 358.4740 1.00321256 40315

Live tracking on map

Real-time ground track for satellite FENGYUN 2A DEB.

In-orbit conjunctions

A list of the most updated potential collisions computed for object FENGYUN 2A DEB.

Target Orbit TCA Probability of collision Miss distance Type
LUCH 1 OTHER 2024-12-20 18:31:28 TBA 4254.0 (m) PAYLOAD
SL-12 R/B(2) OTHER 2024-09-25 22:42:25 TBA 4416.0 (m) ROCKET BODY

Associated space launch

China's geostationary meteorological satellite program FY-2 (Feng Yun 2) began its development in 1980. It is built by the Shanghai Institute of Satellite Engineering.

FENGYUN 2A DEB was lifted into orbit during the mission ‘Long March 3 | Feng Yun 2A’, on board a Long March 3 space rocket.

The launch took place on June 10, 1997, 12:01 p.m. from Launch Complex 3 (LC-3/LA-1).

For more information about the launch, click the button.

Launch to space Long March 3 | Feng Yun 2A
Long March 3 | Feng Yun 2A

Agency: N/A

Status: Launch Successful

Launch date: June 10, 1997, 12:01 p.m. UTC

Rocket: Long March 3

Launch pad: Launch Complex 3 (LC-3/LA-1)

Location: Xichang Satellite Launch Center, People's Republic of China

...

Latest news about this satellite

There are no fresh news available about this satellite. Check back as we update our databases every day.


Newsletter sign-up

Weekly statistics, charts and insights to help you stay on top of the space industry.